EW0349 Weather Reports


time (UTC)temp
C
wind
direction
speed
KPH
gust
KPH
rain 1hr
cm
rain 24hr
cm
rain mn
cm
humidity
%
barometer
mb
20260905150026 11 275 0.0 1.6 0.03 0.18 0.03 100 1017.0
20260905144529 11 214 0.0 0.0 0.03 0.18 0.03 100 1017.1
20260905143016 11 214 0.0 1.6 0.03 0.18 0.03 100 1017.0
20260905141512 11 214 0.0 0.0 0.00 0.15 0.00 100 1017.0
20260905140007 11 214 0.0 0.0 0.00 0.18 0.00 100 1017.0
20260905134503 11 214 0.0 1.6 0.00 0.18 0.00 100 1017.0
20260905133059 11 213 0.0 1.6 0.00 0.18 0.00 100 1016.9
20260905131558 11 213 0.0 3.2 0.00 0.18 0.00 100 1016.8
20260905130049 11 217 0.0 3.2 0.00 0.18 0.00 100 1016.7
20260905124546 11 218 0.0 0.0 0.00 0.18 0.00 100 1016.7
20260905123041 11 218 0.0 0.0 0.00 0.18 0.00 100 1016.6
20260905121542 11 218 0.0 1.6 0.00 0.18 0.00 100 1016.4
20260905120032 11 218 0.0 1.6 0.00 0.18 0.00 100 1016.5
20260905114527 11 213 0.0 0.0 0.00 0.18 0.00 100 1016.6
20260905113023 11 213 0.0 0.0 0.00 0.18 0.00 100 1016.5
20260905111522 11 213 0.0 0.0 0.00 0.18 0.00 100 1016.4
20260905110014 11 213 0.0 1.6 0.00 0.20 0.00 100 1016.4
20260905104510 11 213 0.0 0.0 0.00 0.20 0.00 100 1016.4
20260905103008 11 213 0.0 0.0 0.00 0.20 0.00 100 1016.4
20260905101502 11 213 0.0 3.2 0.00 0.20 0.00 100 1016.5
20260905094553 11 206 0.0 0.0 0.00 0.25 0.00 100 1016.4
20260905093049 11 206 0.0 0.0 0.00 0.25 0.00 100 1016.4
20260905091543 11 206 0.0 0.0 0.00 0.25 0.00 100 1016.4
20260905090059 11 206 0.0 0.0 0.00 0.41 0.00 100 1016.3
20260905084535 11 206 0.0 0.0 0.00 0.41 0.00 100 1016.4
20260905083031 11 206 0.0 0.0 0.00 0.41 0.00 100 1016.2
20260905081526 11 206 0.0 0.0 0.00 0.41 0.00 100 1016.2
20260905080021 11 206 0.0 0.0 0.00 0.46 0.00 100 1015.9
20260905074517 11 206 0.0 0.0 0.00 0.46 0.00 100 1015.9
20260905073016 11 206 0.0 0.0 0.00 0.46 0.00 100 1015.9
20260905071508 11 206 0.0 0.0 0.00 0.46 0.00 100 1015.9
20260905070004 12 206 0.0 0.0 0.00 0.48 0.46 100 1015.8
20260905064600 11 206 0.0 0.0 0.00 0.48 0.46 100 1015.8
20260905063055 11 206 0.0 0.0 0.00 0.48 0.46 100 1015.8
20260905061555 11 206 0.0 3.2 0.00 0.48 0.46 100 1015.6
20260905060047 11 206 0.0 1.6 0.00 0.48 0.46 100 1015.7
20260905054542 11 206 0.0 0.0 0.00 0.48 0.46 100 1015.5
20260905053036 12 206 0.0 0.0 0.00 0.48 0.46 100 1015.5
20260905051533 12 206 0.0 0.0 0.00 0.48 0.46 100 1015.4
20260905050028 11 206 0.0 0.0 0.00 0.48 0.46 100 1015.4
20260905044528 11 206 0.0 0.0 0.00 0.48 0.46 100 1015.3
20260905043020 11 206 0.0 0.0 0.00 0.48 0.46 100 1015.2
20260905041514 12 206 0.0 0.0 0.00 0.48 0.46 100 1015.1
20260905040010 12 206 0.0 0.0 0.00 0.48 0.46 100 1014.9
20260905034506 12 206 0.0 0.0 0.00 0.48 0.46 100 1014.8
20260905033002 12 206 0.0 1.6 0.00 0.48 0.46 100 1014.6
20260905031600 12 206 0.0 1.6 0.00 0.48 0.46 100 1014.5
20260905030053 12 206 0.0 4.8 0.00 0.66 0.46 100 1014.4
20260905024548 13 208 0.0 1.6 0.00 0.66 0.46 1 1014.2
20260905023046 13 207 0.0 3.2 0.00 0.66 0.46 10 1014.4
20260905021540 13 208 0.0 3.2 0.00 0.66 0.46 19 1014.4
20260905020035 14 193 0.0 1.6 0.00 0.71 0.46 27 1014.4
20260905014530 15 193 0.0 6.4 0.00 0.71 0.46 40 1014.3
20260905013026 16 80 0.0 4.8 0.00 0.71 0.46 46 1014.2
20260905011523 16 198 0.0 6.4 0.00 0.71 0.46 49 1014.1
20260905010017 16 317 0.0 6.4 0.00 0.76 0.46 51 1013.9
20260905004512 16 175 1.6 6.4 0.00 0.76 0.46 49 1013.8
20260905003009 16 179 1.6 8.0 0.00 0.76 0.46 46 1013.7
20260905001505 16 213 3.2 11.3 0.00 0.76 0.46 48 1013.6
20260905000101 16 181 1.6 6.4 0.00 0.86 0.46 47 1013.6
20260904234559 16 209 1.6 11.3 0.00 0.86 0.46 46 1013.4
20260904233054 16 257 0.0 6.4 0.00 0.86 0.46 40 1013.3
20260904231546 16 200 3.2 11.3 0.00 0.86 0.46 40 1013.2
20260904230042 16 194 1.6 9.7 0.00 1.02 0.46 36 1013.1
20260904224538 16 240 1.6 8.0 0.00 1.02 0.46 5 1013.2
20260904223033 15 253 0.0 6.4 0.03 1.02 0.46 100 1013.2
20260904221528 14 254 0.0 3.2 0.03 1.02 0.46 100 1013.2
20260904220024 13 25 0.0 1.6 0.08 1.19 0.46 100 1013.2
20260904214519 13 25 0.0 0.0 0.10 1.19 0.46 100 1013.1
20260904213015 13 25 0.0 3.2 0.08 1.17 0.43 100 1013.0
20260904211511 13 163 0.0 3.2 0.08 1.17 0.43 100 1013.0
20260904210013 13 195 1.6 4.8 0.03 1.12 0.38 8 1013.1
20260904204503 15 219 3.2 17.7 0.00 1.09 0.36 37 1013.1
20260904203059 16 281 0.0 6.4 0.00 1.09 0.36 45 1012.7
20260904201554 16 344 0.0 8.0 0.00 1.09 0.36 43 1012.5
20260904200049 16 213 1.6 6.4 0.00 1.09 0.36 30 1012.5
20260904194555 15 237 1.6 3.2 0.00 1.09 0.36 8 1012.6
20260904193040 15 47 0.0 3.2 0.00 1.09 0.36 100 1012.8
20260904191536 15 305 0.0 4.8 0.00 1.09 0.36 100 1012.9
20260904190031 14 212 0.0 3.2 0.00 1.12 0.36 100 1012.9
20260904184527 13 61 0.0 6.4 0.00 1.12 0.36 100 1012.9
20260904183026 13 178 0.0 1.6 0.00 1.12 0.36 100 1012.8
20260904181523 13 178 0.0 1.6 0.00 1.12 0.36 100 1012.6
20260904180032 13 178 0.0 0.0 0.00 1.27 0.36 100 1012.6
20260904174509 13 178 0.0 1.6 0.00 1.27 0.36 100 1012.5
20260904173006 13 178 0.0 0.0 0.00 1.27 0.36 100 1012.3
20260904171620 12 178 0.0 1.6 0.00 1.27 0.36 100 1012.2
20260904170055 12 178 0.0 3.2 0.00 1.27 0.36 100 1012.1
20260904164606 12 178 0.0 1.6 0.00 1.27 0.36 100 1012.1
20260904163047 12 178 0.0 0.0 0.00 1.27 0.36 100 1012.0
20260904161553 12 178 0.0 1.6 0.00 1.27 0.36 100 1011.9
20260904160039 12 178 0.0 1.6 0.00 1.27 0.36 100 1011.9
20260904154540 11 178 0.0 1.6 0.00 1.27 0.36 100 1012.0
20260904153035 11 178 0.0 1.6 0.03 1.27 0.36 100 1011.8
20260904151524 11 178 0.0 1.6 0.05 1.27 0.36 100 1011.7